User: anonymous
Location: Caltech
(34.1382°N, 118.1253°W)
Time: 07:10:15
(UTC-07:00)
Language:

Cosmos 676 Rocket - Orbit

View from above orbital plane
View from above orbital plane
View from above satellite
View from above satellite

Ground track
Ground track

The orbit data is extracted from the following two-line orbital elements,

1 07434U 74071B   14203.88419265  .00000079  00000-0  36056-4 0  2634
2 07434 074.0494 000.7790 0020561 175.4669 293.2950 14.36260391 84460
Epoch (UTC): 22 July 2014 21:13:14
Eccentricity: 0.0020561
inclination: 74.0494°
perigee height: 756 km
apogee height: 785 km
right ascension of ascending node: 0.7790°
argument of perigee: 175.4669°
revolutions per day: 14.36260391
mean anomaly at epoch: 293.2950°
orbit number at epoch: 8446

The dashed part of the orbit path shows where the satellite is in the earth's shadow,  

DLR